Regional Weather Roundup
Issued by NWS New Orleans/Baton Rouge, LA

Home | Current Version | Previous Version | Text Only | Print | Product List | Glossary On
Versions: 1 2 3 4 5 6 7 8 9 10 11 12 13 14 15 16 17 18 19 20 21 22 23 24 25 26 27 28 29 30 31 32 33 34 35 36 37 38 39 40 41 42 43 44 45 46 47 48 49 50
044
ASUS44 KLIX 271012
RWRLIX
NEW ORLEANS REGIONAL WEATHER ROUNDUP
NATIONAL WEATHER SERVICE NEW ORLEANS LA
500 AM CDT FRI MAR 27 2015

NOTE: "FAIR" INDICATES FEW OR NO CLOUDS BELOW 12,000 FEET WITH NO
      SIGNIFICANT WEATHER AND/OR OBSTRUCTIONS TO VISIBILITY.
      SKY/WX - SKY CONDITION AND SIGNIFICANT WEATHER.
      TMP - AIR TEMPERATURE.     DP    - DEWPOINT TEMPERATURE.
      RH  - RELATIVE HUMIDITY.   PRES  - PRESSURE.
      HI  - HEAT INDEX.          WCI   - WIND CHILL INDEX.

*  THESE STATIONS ARE NOT NWS OR FAA STATIONS AND ARE NOT UNDER
   NWS QUALITY CONTROL.

LAZ038-040-048-061>063-065>067-069-271100-
SOUTHEAST LOUISIANA

CITY           SKY/WX    TMP DP  RH WIND       PRES   REMARKS
N.O. AUDUBON     N/A     55  51  85 MISG        N/A
N.O. INTL ARPT CLOUDY    54  47  77 N17       29.96R
N.O. LAKEFRONT CLOUDY    57  49  74 NW23      29.96R
SLIDELL        CLOUDY    53  48  83 N12G20    29.95R
BATON ROUGE    CLEAR     49  42  77 NW7       30.02R
BOOTHVILLE     CLOUDY    58  54  86 N15       29.92R
BELLE CHASSE   CLOUDY    56  48  74 VRB6      29.94R
BOGALUSA*        N/A     53  46  79 N14       29.99R
GALLIANO*      CLOUDY    57  53  88 MISG      29.96R
NEW ROADS*       N/A     49  38  66 N8G20     30.04R
GONZALES*      CLOUDY    52  46  79 NW13G20   30.00R
HAMMOND*       CLOUDY    52  45  76 N16G22    30.01R
HOUMA*         CLOUDY    54  48  82 NW9       29.97S
PORT FOURCHON* CLOUDY    57  52  82 N14G23    29.98R

$$

MSZ070-080>082-271100-
SOUTHERN MISSISSIPPI

CITY           SKY/WX    TMP DP  RH WIND       PRES   REMARKS
MCCOMB         PTCLDY    48  42  80 N12G20    29.99S
GULFPORT       CLOUDY    54  48  80 NW16G23   29.91R
BILOXI         CLOUDY    55  49  82 N18G25    29.90R
PASCAGOULA     CLOUDY    54  50  86 N12G25    29.89R

$$

COASTAL OBSERVATIONS
LAKE AND NEARSHORE STATIONS

STATION/POSITION TIME  TEMP    WIND        PRES    WAVE
                       AIR SEA DIR/SP/G            HT/PER
                 (UTC) (F)     (DEG/KT/KT) (MB)    (FT/S)
PASCAGOULA       0900          350/ 11/ 20 1011.2
WAVELAND YACHT   0900          350/ 19/ 24 1012.7
GRAND ISLE       0900          350/ 21/ 25 1012.7
SOUTHWEST PASS   0900          360/ 14/ 16 1012.7
NEW CANAL        0900          360/ 21/ 24 1014.3
SHELL BEACH      0900          330/ 20/ 24 1013.0

OFFSHORE STATIONS

STATION/POSITION TIME  TEMP    WIND        PRES    WAVE
                       AIR SEA DIR/SP/G            HT/PER
                 (UTC) (F)     (DEG/KT/KT) (MB)    (FT/S)
64 S DAUPHIN ISL 0950   65 73  320/ 19/ 21 1010.8    3/ 4

$$




USA.gov is the U.S. government's official web portal to all federal, state and local government web resources and services.